User: anonymous   Login
Location: Unspecified
(0.0000°N, 0.0000°E)
Time: 10:37:02
(UTC+00:00)
Language:

USA 67 - Orbit

View from above orbital plane
View from above orbital plane
View from above satellite
View from above satellite

Ground track
Ground track

The orbit data is extracted from the following two-line orbital elements,

1 20963U 90097B   18111.76786325 0.00000000  00000-0  00000-0 0    04
2 20963  16.5830   0.8266 0017172 221.0222 138.8606  0.98582212    05
Epoch (UTC): 21 April 2018 18:25:43
Eccentricity: 0.0017172
inclination: 16.5830°
perigee height: 36193 km
apogee height: 36340 km
right ascension of ascending node: 0.8266°
argument of perigee: 221.0222°
revolutions per day: 0.98582212
mean anomaly at epoch: 138.8606°
orbit number at epoch: 0

The dashed part of the orbit path shows where the satellite is in the earth's shadow,  

DLR